Weather in Seni

Russia / Kaluga Oblast     54°42′35″N   35°43′26″E
temp.,
°C
wind,
m/s
gust,
m/s
humid.,
%
clouds,
%
prec.,
mm/h
press.,
hPa
HPBL,
m
14 april, wed
wed1400:00+11sse2570100 0.0 101972
03:00+11sse287428 0.0 1019193
06:00+9sse289311 0.0 1019167
09:00+13s37786 0.0 1019515
12:00+17s465841 0.0 10181367
15:00+18s3652100 0.2 10171651
18:00+16ssw116486 0.2 101738
21:00+12nne2277100 0.2 101711
15 april, thu
thu1500:00+11ene2482100 0.0 101684
03:00+9e2267100 0.0 101616
06:00+8ene2367100 0.0 101652
09:00+12ene3559100 0.0 1016255
12:00+16se3548100 0.0 10161095
15:00+17ene2544100 0.0 10151551
18:00+15ene3754100 0.0 1015206
21:00+11ne4127299 0.3 1016315
16 april, fri
fri1600:00+10ene6138671 0.1 1016546
03:00+10ene51292100 0.4 1017514
06:00+8ene51190100 0.6 1018494
09:00+9ene51088100 1.0 1019474
12:00+12ene6975100 0.1 1019980
15:00+13e51073100 0.3 10191287
18:00+14e51169100 0.1 10191277
21:00+12ene51273100 0.3 1021861
17 april, sat
sat1700:00+9ene5118275 0.0 1022639
03:00+8ene5128499 0.1 1023627
06:00+7ene5118939 0.0 1023541
09:00+9ene597455 0.1 1024680
12:00+12ene685869 0.0 10241032
15:00+14ene695159 0.0 10241314
18:00+13ene51055100 0.0 10241175
21:00+9ene4135224 0.0 1026635
18 april, sun
sun1800:00+7ene4136045 0.0 1026503
03:00+5ne412685 0.0 1027405
06:00+5ene41269100 0.0 1027445
09:00+6ene41165100 0.0 1028526
12:00+10e485093 0.0 1028865
15:00+14e46396 0.0 10281745
18:00+13e36455 0.0 1028684
21:00+7ene24655 0.0 102962